Regional Weather Roundup
Issued by NWS Kansas City/Pleasant Hill, MO

Home | Current Version | Previous Version | Text Only | Print | Product List | Glossary On
Versions: 1 2 3 4 5 6 7 8 9 10 11 12 13 14 15 16 17 18 19 20 21 22 23 24 25 26 27 28 29 30 31 32 33 34 35 36 37 38 39 40 41 42 43 44 45 46 47 48 49 50
000
ASUS43 KEAX 211311
RWREAX

WEATHER ROUNDUP FOR EASTERN KANSAS AND NORTHWEST MISSOURI
NATIONAL WEATHER SERVICE KANSAS CITY/PLEASANT HILL MO
700 AM CST SUN DEC 21 2014

KSZ040-057-103>105-MOZ028-029-037-043-211400-
...KANSAS CITY METROPOLITAN AREA...

CITY           SKY/WX    TMP DP  RH WIND       PRES   REMARKS
K.C. INTL      CLOUDY    38  35  89 S10       30.04S WCI  31
K.C. DOWNTOWN  CLOUDY    39  36  89 S7        30.06S WCI  34
LEES SUMMIT    CLOUDY    38  36  92 S7        30.06F FOG     WCI  33
OLATHE - IXD   CLOUDY    37  36  96 S7        30.05F FOG     WCI  32
OLATHE - OJC   CLOUDY    37  37 100 S7        30.04F FOG     WCI  32
LAWRENCE       CLOUDY    38  35  89 S8        30.04F WCI  32

$$

MOZ001>008-011>017-020>025-030>033-038>040-044>046-053-054-211400-
...NORTHERN AND CENTRAL MISSOURI...

CITY           SKY/WX    TMP DP  RH WIND       PRES   REMARKS
ST. JOSEPH     CLOUDY    37  34  89 S14       30.03F WCI  28
MOSBY          CLOUDY    36  36 100 SE3       30.07S FOG
WARRENSBURG    CLOUDY    39  36  87 SE5       30.08F FOG
WHITEMAN AFB   MOCLDY    40  37  87 S8        30.09  WCI  35
CLINTON        CLOUDY    41  39  93 SE5       30.11S FOG
SEDALIA        CLOUDY    41  35  79 SE5       30.11F
WARSAW         NOT AVBL
MARSHALL       CLOUDY    43  37  81 SE9       30.12S
CHILLICOTHE      N/A     40  36  86 S7        30.09S
MOBERLY        CLOUDY    41  34  75 S3        30.13F
KIRKSVILLE     CLOUDY    38  36  92 SE9       30.10F WCI  31

$$

MOZ041-047>049-056>058-063>065-088>090-097-211400-
...EASTERN AND SOUTHERN MISSOURI...

CITY           SKY/WX    TMP DP  RH WIND       PRES   REMARKS
ST. LOUIS INTL CLOUDY    41  32  70 SE8       30.21F
SPIRIT OF STL  CLOUDY    40  33  76 SE5       30.19F
COLUMBIA       CLOUDY    41  36  82 S7        30.14S
JEFFERSON CITY CLOUDY    42  35  76 SE5       30.15F
MEXICO         CLOUDY    41  41 100 SE6       30.14F
HANNIBAL       CLOUDY    41  34  75 SE7       30.15S
ROLLA          CLOUDY    39  34  82 S7        30.14S WCI  34
LEBANON        CLOUDY    39  36  87 SE6       30.13S WCI  35
OSAGE BEACH    CLOUDY    41  34  75 S5        30.14R
SPRINGFIELD    CLOUDY    41  36  82 SE9       30.10S
BRANSON        CLOUDY    39  37  93 SE8       30.15R FOG     WCI  34
NEVADA         CLOUDY    41  39  93 S6        30.10S
JOPLIN         CLOUDY    42  40  92 S10       30.09S
WEST PLAINS    CLOUDY    38  34  85 S8        30.17R WCI  32

$$

IAZ060-094-KSZ022-034>040-054-083-096-NEZ052-066-093-211400-
...KANSAS...SOUTHEAST NEBRASKA AND IOWA...

CITY           SKY/WX    TMP DP  RH WIND       PRES   REMARKS
TOPEKA         CLOUDY   N/A N/A N/A S9        30.02F
MANHATTAN      CLOUDY    42  37  82 S13G21    29.97S
EMPORIA        CLOUDY    38  37  97 S10       30.01F FOG     WCI  31
CHANUTE        CLOUDY    40  38  93 S7        30.06R
WICHITA        CLOUDY    41  37  86 S13       30.00S WCI  34
OMAHA          CLOUDY    37  35  92 S14       29.91F FOG     WCI  28
LINCOLN        CLOUDY    39  37  92 S13       29.90F WCI  31
FALLS CITY     CLOUDY    37  34  89 S14       29.97S WCI  28
LAMONI         CLOUDY    36  33  89 S12       30.03S WCI  28
DES MOINES     CLOUDY    38  34  85 S17G23    29.99F WCI  28

$$



USA.gov is the U.S. government's official web portal to all federal, state and local government web resources and services.